Temperature
12 12 12 12 12 12 13 13 13 13 14 14 14 14 14 14 14 14 14 14 14 14 14 14 14 14 14 14 14 15 15 15 14 14 14 14 14 13 13 13 13 13 13
11 11 11 11 11 11 11 11 12 12 12 13 13 13 14 14 14 14 14 14 14 14 14 14 14 14 14 14 14 14 15 14 14 14 13 13 13 13 13 13 12 12 12
11 11 10 10 10 10 10 10 11 11 11 12 12 12 13 13 13 14 14 14 14 13 13 13 13 13 14 14 14 14 14 14 14 13 13 13 12 12 12 12 12 12 12
11 11 10 10 10 10 10 10 10 10 10 10 11 11 12 12 13 13 13 13 13 13 13 13 13 13 13 14 14 14 13 13 13 13 12 12 12 12 12 12 11 11 11
11 11 11 10 10 10 10 9 9 9 9 10 10 10 11 11 12 12 13 13 13 13 13 13 13 13 13 13 13 13 13 13 12 12 12 12 11 11 11 11 11 11 11
11 11 11 10 10 10 10 9 9 9 9 9 9 9 10 10 11 12 12 13 13 13 13 13 13 13 13 13 13 12 12 12 12 12 12 12 11 12 11 11 11 11 10
11 11 10 10 10 10 10 10 9 9 9 9 9 9 9 10 10 11 11 12 12 13 12 12 12 12 12 12 12 12 12 12 12 12 12 12 11 11 11 11 11 12 11
10 10 10 10 10 10 10 9 9 9 9 9 9 9 9 9 10 10 11 11 12 12 12 12 12 12 12 12 11 11 11 11 12 12 12 11 11 11 12 12 12 12 12
9 9 9 9 9 9 9 9 9 9 9 8 8 9 9 9 9 10 10 11 11 12 12 12 12 12 12 11 11 11 11 11 11 11 11 11 11 11 12 12 12 12 12
9 8 8 8 8 8 8 8 8 8 8 8 8 8 9 9 9 9 10 10 10 11 11 12 12 12 12 11 11 11 11 11 11 11 11 11 11 11 12 12 12 12 12
8 7 7 7 7 7 7 8 8 8 8 8 8 8 8 9 9 9 9 9 10 10 11 11 11 11 11 11 11 11 11 11 11 11 11 11 11 11 11 11 12 12 12
6 6 6 6 6 7 7 7 7 7 7 8 8 8 8 9 9 9 9 9 10 10 11 11 11 11 11 11 11 11 11 11 11 11 11 11 11 11 11 11 12 12 12
5 5 5 5 6 6 6 6 7 7 7 7 8 8 8 9 9 9 9 9 9 9 10 11 11 11 11 11 11 11 11 11 11 11 11 11 11 10 11 11 11 11 11
4 5 5 5 5 5 6 6 6 7 7 8 8 8 8 8 8 8 8 9 9 9 9 10 11 11 11 11 11 11 11 11 11 11 11 11 10 10 10 10 10 10 10
4 4 4 5 5 5 6 6 6 7 7 7 8 8 8 8 8 8 8 8 8 8 9 10 10 10 10 10 11 11 11 11 12 11 11 10 10 10 10 10 10 10 10
4 4 4 5 5 5 6 6 6 7 7 7 8 8 8 8 8 8 8 8 7 8 9 10 10 10 10 10 10 11 11 11 11 11 11 10 10 10 10 10 10 10 10
4 5 5 5 5 5 6 6 6 7 7 7 7 7 8 8 7 7 7 7 7 8 9 10 10 10 10 10 11 11 11 11 11 11 11 11 11 11 11 11 11 11 11
5 5 5 5 5 6 6 6 6 7 7 7 7 7 7 7 7 7 7 7 7 9 10 10 11 11 11 11 11 11 11 11 11 11 11 11 11 11 11 11 11 11 11
5 5 5 6 6 6 6 6 7 7 7 7 7 7 7 7 7 7 7 7 8 10 11 11 12 12 12 12 12 12 11 11 11 11 11 11 11 11 11 11 11 11 11
6 6 6 6 6 6 6 7 7 7 7 7 7 7 7 7 6 7 7 8 9 10 11 12 12 12 12 12 12 12 11 11 11 11 11 11 11 11 11 11 11 11 11
6 6 6 6 6 6 7 7 7 7 7 7 7 7 7 7 7 7 8 9 10 10 11 12 12 12 12 12 12 12 11 11 11 11 11 11 11 11 11 11 11 11 11
7 7 7 7 7 7 7 7 7 8 7 7 7 7 7 7 7 7 8 9 10 11 11 12 12 12 12 12 12 12 11 11 11 11 11 11 11 11 11 11 11 11 11
7 7 7 7 7 7 7 8 8 7 7 7 7 7 6 7 7 8 9 9 10 10 11 12 12 12 12 12 12 12 12 11 11 11 11 11 11 11 11 11 11 11 11
8 8 8 8 8 8 8 8 7 7 7 7 7 7 7 7 8 8 9 9 10 11 11 12 12 12 12 12 12 12 12 12 12 11 11 11 11 11 11 11 11 11 11
8 8 8 8 8 8 8 8 7 7 7 7 7 7 7 7 8 9 9 10 10 11 11 12 12 12 12 12 12 12 12 12 12 11 11 11 11 11 11 11 11 11 11
8 8 8 8 8 8 8 8 7 7 7 7 7 8 8 8 9 9 10 10 11 11 11 12 12 12 12 12 12 12 12 12 12 11 11 11 11 11 11 11 11 11 11
Wind_Speed
6 6 7 7 8 8 7 7 7 8 8 9 9 9 9 9 9 8 8 9 8 7 7 7 7 7 5 5 5 6 6 6 5 2 2 4 7 9 9 11 12 11 13
7 7 7 7 8 9 9 8 8 9 9 9 9 9 10 11 9 9 9 9 7 7 6 6 6 5 5 4 4 5 5 5 6 7 5 5 7 9 10 10 8 11 12
9 8 8 9 9 9 10 9 9 10 10 10 10 10 10 11 10 10 10 9 7 6 5 4 4 4 4 3 3 2 2 4 6 8 7 5 6 7 9 10 10 8 11
10 10 9 10 10 10 10 10 10 10 10 10 10 10 11 11 11 11 11 9 7 6 4 3 2 1 1 1 1 0 3 6 7 9 9 7 6 7 8 9 8 6 8
10 10 10 10 10 10 11 11 11 11 13 11 10 10 10 11 11 11 10 10 7 6 4 2 2 4 3 2 2 3 4 6 8 9 8 7 6 7 6 6 8 7 7
11 11 10 10 10 10 10 11 11 11 12 11 11 10 10 12 12 12 10 8 6 5 5 5 6 6 7 8 8 7 6 8 8 8 7 8 7 6 6 7 7 8 6
10 11 11 11 11 10 12 11 10 10 11 11 10 10 10 10 12 13 12 9 7 6 6 7 7 8 8 7 8 9 8 8 8 8 9 8 7 7 7 7 8 7 5
12 12 11 11 12 11 10 10 10 9 9 9 10 11 10 11 10 11 12 11 9 7 8 8 8 10 9 9 8 8 7 7 7 8 8 7 6 5 6 7 7 7 6
14 13 12 12 12 11 11 10 9 9 9 9 10 11 10 9 8 9 10 9 9 8 9 10 11 11 13 12 10 10 10 9 11 14 13 12 12 10 7 5 5 6 6
15 13 13 13 13 13 12 11 10 9 9 10 11 11 11 9 7 8 10 8 9 8 8 10 13 13 15 13 10 11 11 10 10 11 10 9 8 8 8 5 2 4 7
15 14 14 13 13 13 12 11 10 11 11 11 11 10 10 9 8 9 11 8 8 8 10 9 10 16 16 13 11 9 12 11 9 9 7 6 6 5 7 7 6 3 6
16 16 15 14 16 16 11 11 11 11 11 11 11 12 10 8 8 9 12 12 10 7 9 10 12 18 16 13 10 14 16 13 8 7 6 6 5 7 8 8 7 7 9
17 17 16 16 14 14 13 12 11 10 11 11 10 10 8 5 5 8 10 10 10 7 5 12 18 18 16 11 13 16 13 7 7 7 7 6 7 8 7 6 6 6 6
18 17 15 14 14 13 11 11 11 11 10 10 9 8 5 3 3 3 4 4 5 5 6 14 19 17 11 12 11 10 7 5 6 6 8 9 8 6 6 6 5 5 6
17 15 14 13 13 12 11 10 11 10 9 7 6 5 4 3 3 5 5 5 5 5 11 11 11 10 10 9 8 7 6 4 6 8 10 9 7 6 6 6 5 6 6
14 13 11 10 10 10 10 10 12 12 10 8 5 3 3 5 6 6 6 7 5 9 12 12 12 11 11 11 10 8 6 6 7 8 8 7 6 6 5 5 5 6 7
13 12 9 9 9 9 8 8 6 5 6 6 6 6 7 8 7 7 8 8 9 12 10 11 11 10 10 10 9 8 7 7 7 8 7 7 6 6 6 5 4 5 6
10 11 9 8 8 7 7 6 5 5 5 5 5 7 9 9 8 8 10 10 8 9 9 10 10 10 9 9 9 8 7 8 7 7 7 6 6 6 6 5 4 6 6
7 5 5 5 5 6 6 5 5 5 5 4 5 5 7 8 8 9 10 7 10 9 7 8 9 9 9 8 8 8 9 8 7 6 7 7 6 6 6 5 5 6 5
4 3 3 2 3 4 4 5 4 4 4 5 6 7 7 6 6 6 6 6 6 5 5 6 7 8 7 7 8 9 9 8 7 6 7 6 6 6 6 7 7 5 3
4 2 2 1 1 2 3 3 3 3 5 6 7 9 11 9 8 9 8 6 5 4 3 4 6 8 7 8 8 9 10 8 6 6 7 6 6 5 6 7 8 6 5
4 3 2 2 2 2 2 2 2 3 6 8 9 9 11 8 9 9 8 6 4 2 2 3 6 7 7 8 8 8 9 9 8 7 8 6 5 6 6 6 7 6 6
5 4 3 2 2 3 2 2 3 5 7 8 9 9 8 8 9 9 8 5 3 2 1 1 4 5 6 6 7 8 9 9 8 8 8 7 6 5 5 5 6 6 5
7 5 4 2 1 2 2 3 4 6 8 8 9 9 9 9 10 10 8 6 4 3 3 2 3 6 7 7 6 7 7 8 8 8 9 7 7 5 5 5 5 6 5
6 5 4 3 2 2 2 3 4 6 7 7 8 9 10 10 10 10 9 8 6 3 3 3 3 6 8 8 7 7 12 14 10 9 6 5 6 6 6 6 5 5 5
6 5 4 3 2 2 2 2 3 5 6 8 9 9 10 11 11 11 10 7 5 4 4 4 5 7 8 6 10 14 15 15 13 10 5 4 4 4 5 5 6 6 6
Wind_Direction
322 320 319 317 317 316 309 311 317 318 318 314 304 291 281 274 265 257 258 264 269 277 284 288 288 285 279 271 264 252 237 215 201 156 127 124 116 116 112 112 112 103 100
305 301 299 300 302 301 301 306 309 307 305 305 305 298 284 275 268 265 263 267 272 277 282 290 294 297 294 285 271 254 234 201 171 150 137 129 117 120 119 116 111 105 103
276 273 274 275 278 281 284 287 289 290 292 294 297 298 295 285 275 269 264 262 264 270 277 285 295 306 306 299 285 261 197 158 145 141 138 129 120 123 118 113 112 113 111
268 264 261 262 263 264 267 270 273 276 279 280 282 287 292 293 282 271 265 260 257 258 262 267 284 332 330 318 310 140 135 133 135 136 135 130 126 126 124 128 127 132 131
273 269 264 258 256 257 259 260 262 265 271 273 275 280 286 289 280 277 268 260 247 238 227 197 114 94 77 81 119 124 133 134 136 136 136 133 136 143 143 146 143 145 134
271 271 270 264 262 260 259 259 258 258 260 261 265 270 275 282 297 303 286 267 250 229 204 161 141 125 107 92 88 91 114 136 142 141 141 144 149 152 153 156 150 147 147
281 280 275 272 270 265 269 267 263 263 264 262 262 264 267 275 283 281 273 263 241 219 196 176 171 148 140 123 108 100 94 106 127 135 140 143 147 160 162 162 163 158 143
285 283 280 275 275 271 265 263 263 263 265 270 269 266 263 269 280 274 264 256 242 216 191 179 161 156 154 146 135 115 95 88 113 119 123 126 125 131 140 142 134 122 115
287 284 284 281 279 275 271 268 267 266 265 267 270 265 260 258 259 256 247 252 238 212 187 171 163 160 156 153 138 121 109 96 92 105 109 110 103 96 101 122 133 132 132
286 285 284 280 277 275 272 270 271 268 266 265 265 264 261 257 250 236 227 243 237 207 178 166 166 158 158 157 145 136 129 126 122 116 111 113 113 101 87 82 100 154 142
289 287 285 280 276 273 269 266 265 265 266 263 264 266 261 254 250 226 214 227 241 208 178 166 159 152 153 152 146 139 138 135 131 130 127 126 119 101 82 65 50 78 126
291 287 282 278 276 273 265 263 261 261 262 261 258 259 256 245 238 218 210 217 240 231 188 162 154 152 148 145 141 143 147 145 144 144 142 142 126 100 89 81 70 68 87
286 280 277 275 271 268 265 262 260 256 254 255 252 251 247 231 214 213 209 214 227 234 215 155 149 148 140 139 148 154 161 165 157 154 145 128 113 111 107 100 94 87 77
281 277 274 272 269 264 259 255 253 252 249 246 246 247 238 207 199 192 191 190 189 199 165 144 141 145 142 138 148 160 178 183 161 142 124 118 119 128 136 141 137 121 101
279 275 270 266 264 262 256 249 247 246 247 245 248 235 210 204 192 170 173 163 165 166 147 146 145 147 148 149 160 171 188 175 143 127 126 133 147 164 164 158 154 147 133
276 272 266 260 257 252 252 254 238 233 231 215 206 190 133 134 150 163 163 154 161 169 157 151 152 156 158 159 166 175 179 158 140 134 137 149 164 158 142 148 166 158 150
274 270 263 257 252 247 242 238 234 219 208 186 166 148 133 140 153 160 147 152 173 179 168 156 156 159 160 163 168 168 163 148 139 141 148 155 153 141 143 164 171 144 135
280 272 261 253 247 238 232 226 218 210 197 189 168 150 141 141 148 146 140 146 174 193 175 162 161 162 162 163 164 161 151 141 142 149 152 152 149 147 155 164 155 141 133
298 283 266 250 236 223 215 206 204 206 199 186 155 137 131 124 123 135 146 163 177 189 174 161 158 155 155 156 154 146 141 144 155 151 148 150 150 150 160 161 129 122 146
330 310 288 249 214 201 197 197 197 192 181 172 161 147 143 138 140 152 169 184 194 184 156 149 146 143 144 144 137 138 145 152 155 151 143 150 154 159 162 146 137 154 185
356 16 244 255 167 174 182 187 187 185 165 154 144 145 152 153 155 166 175 187 194 172 135 135 136 139 136 136 140 147 149 151 156 155 148 161 165 160 153 146 151 178 180
352 14 44 59 97 119 142 169 182 144 137 129 125 134 146 148 157 165 174 186 181 144 135 146 144 142 145 150 150 151 151 156 166 158 152 165 159 157 160 161 170 181 171
3 33 62 67 91 114 146 145 129 119 122 126 132 142 152 152 158 166 173 176 173 150 171 163 144 148 152 150 149 155 158 160 162 153 153 160 162 166 170 170 171 169 169
3 16 26 39 77 121 122 115 117 120 125 131 137 147 153 155 162 170 174 178 185 176 165 165 172 167 150 145 152 160 153 148 148 149 156 165 169 171 170 163 171 183 184
353 1 7 12 33 71 97 114 128 131 135 141 147 153 155 158 165 174 179 182 187 176 174 192 190 162 157 160 149 133 131 131 138 150 154 168 176 176 177 176 182 197 202
347 353 7 17 27 45 82 117 131 141 146 148 153 157 159 163 169 173 174 177 183 189 201 196 176 160 163 158 128 125 129 129 128 129 152 175 187 191 192 199 199 204 212
Height
1473 1471 1470 1468 1467 1466 1465 1464 1464 1463 1463 1463 1462 1462 1462 1463 1463 1463 1462 1461 1460 1458 1457 1455 1453 1452 1450 1449 1448 1448 1448 1450 1451 1453 1455 1457 1459 1462 1464 1467 1469 1471 1473
1469 1468 1466 1464 1462 1460 1459 1458 1457 1456 1456 1456 1455 1455 1455 1456 1456 1456 1456 1456 1455 1454 1452 1451 1449 1447 1446 1444 1443 1443 1443 1444 1446 1448 1452 1455 1457 1460 1463 1466 1469 1471 1473
1464 1462 1460 1458 1456 1455 1453 1451 1450 1449 1448 1448 1448 1448 1447 1448 1448 1449 1450 1450 1449 1449 1447 1446 1445 1443 1442 1440 1439 1439 1439 1440 1443 1445 1449 1453 1456 1460 1463 1466 1469 1471 1474
1459 1457 1454 1453 1451 1449 1447 1445 1444 1442 1441 1440 1440 1440 1440 1440 1441 1442 1443 1443 1443 1443 1443 1442 1441 1440 1439 1438 1437 1436 1437 1438 1440 1444 1448 1452 1455 1459 1462 1466 1469 1472 1474
1453 1451 1448 1446 1444 1442 1440 1439 1437 1436 1435 1434 1433 1432 1432 1433 1434 1435 1436 1436 1437 1438 1438 1437 1437 1437 1436 1435 1435 1435 1436 1437 1439 1442 1447 1451 1455 1458 1462 1466 1469 1473 1476
1446 1444 1442 1440 1438 1436 1434 1432 1431 1429 1428 1428 1427 1426 1425 1426 1426 1427 1428 1429 1430 1432 1433 1433 1433 1434 1434 1434 1434 1434 1435 1437 1439 1442 1446 1449 1454 1458 1462 1465 1469 1472 1477
1439 1436 1434 1432 1430 1429 1427 1426 1425 1423 1422 1422 1421 1420 1419 1419 1419 1419 1420 1422 1424 1426 1428 1429 1430 1431 1432 1432 1433 1434 1436 1438 1440 1442 1445 1449 1453 1457 1461 1466 1470 1473 1476
1431 1428 1427 1425 1423 1421 1420 1418 1417 1417 1416 1415 1415 1414 1413 1413 1413 1412 1413 1415 1417 1420 1422 1424 1426 1428 1430 1431 1433 1435 1436 1439 1441 1444 1447 1451 1455 1459 1463 1467 1470 1474 1477
1422 1420 1418 1416 1414 1412 1411 1410 1410 1409 1408 1408 1408 1407 1407 1406 1406 1406 1407 1408 1410 1413 1416 1419 1422 1425 1427 1430 1433 1435 1437 1440 1443 1446 1449 1453 1457 1461 1464 1468 1471 1474 1477
1412 1410 1408 1406 1404 1403 1402 1401 1401 1401 1401 1401 1400 1400 1400 1400 1400 1400 1401 1401 1404 1407 1411 1414 1418 1422 1425 1429 1432 1435 1437 1441 1444 1448 1451 1455 1458 1462 1465 1467 1470 1473 1476
1402 1399 1397 1395 1394 1393 1392 1392 1392 1393 1393 1393 1393 1393 1393 1393 1394 1394 1395 1395 1398 1402 1405 1409 1414 1419 1423 1427 1431 1435 1438 1442 1445 1449 1452 1455 1459 1462 1464 1467 1469 1471 1475
1390 1387 1385 1384 1383 1383 1382 1382 1383 1384 1384 1385 1385 1385 1386 1386 1387 1387 1388 1389 1392 1396 1400 1405 1410 1416 1421 1426 1430 1435 1439 1443 1446 1450 1453 1456 1459 1461 1464 1467 1470 1472 1474
1377 1374 1373 1372 1372 1372 1372 1373 1374 1375 1376 1377 1378 1379 1379 1380 1380 1381 1381 1383 1386 1390 1395 1401 1407 1413 1419 1424 1430 1435 1439 1443 1447 1451 1454 1456 1459 1461 1464 1467 1470 1473 1475
1364 1362 1361 1360 1360 1361 1362 1364 1365 1367 1369 1370 1372 1373 1374 1374 1374 1374 1375 1377 1381 1385 1390 1398 1405 1412 1418 1423 1429 1434 1439 1443 1447 1450 1453 1456 1459 1462 1464 1467 1469 1472 1474
1353 1351 1350 1350 1351 1352 1353 1355 1357 1359 1362 1364 1366 1367 1369 1369 1370 1370 1371 1373 1377 1381 1388 1395 1402 1410 1416 1422 1428 1433 1438 1442 1446 1449 1452 1455 1459 1462 1465 1467 1470 1472 1474
1343 1342 1342 1342 1343 1344 1346 1348 1350 1353 1356 1358 1361 1363 1364 1365 1366 1367 1368 1371 1375 1381 1388 1394 1401 1408 1414 1420 1426 1432 1437 1441 1445 1448 1452 1455 1459 1462 1465 1468 1470 1473 1475
1336 1335 1335 1335 1336 1338 1340 1343 1345 1348 1351 1354 1356 1359 1361 1362 1363 1364 1366 1370 1376 1383 1389 1395 1402 1408 1414 1420 1426 1431 1436 1440 1444 1448 1452 1455 1459 1462 1465 1468 1470 1473 1475
1330 1329 1330 1330 1332 1334 1336 1339 1342 1344 1347 1350 1353 1355 1357 1358 1360 1362 1366 1371 1378 1385 1391 1397 1403 1409 1415 1420 1425 1430 1435 1439 1443 1447 1451 1455 1458 1461 1465 1468 1470 1473 1475
1328 1327 1327 1328 1329 1332 1334 1337 1340 1342 1345 1348 1350 1352 1354 1356 1358 1362 1367 1373 1379 1386 1392 1398 1404 1409 1414 1420 1425 1429 1434 1438 1443 1447 1450 1454 1458 1461 1464 1467 1470 1472 1475
1328 1327 1327 1328 1330 1332 1334 1336 1339 1341 1343 1346 1348 1350 1353 1356 1359 1364 1369 1375 1381 1388 1393 1399 1404 1410 1415 1420 1424 1429 1433 1438 1442 1446 1450 1453 1457 1461 1464 1466 1468 1471 1474
1331 1330 1330 1331 1332 1333 1335 1337 1339 1341 1343 1346 1348 1350 1353 1356 1361 1366 1372 1378 1384 1390 1395 1400 1406 1411 1416 1420 1424 1429 1433 1437 1441 1445 1449 1453 1456 1460 1463 1465 1467 1470 1473
1335 1334 1334 1334 1335 1336 1337 1338 1340 1342 1344 1347 1349 1352 1355 1359 1364 1369 1375 1381 1387 1392 1397 1403 1408 1413 1417 1421 1425 1429 1433 1437 1441 1445 1448 1452 1455 1459 1462 1464 1467 1469 1471
1340 1339 1338 1338 1338 1339 1340 1341 1342 1344 1346 1348 1351 1354 1357 1362 1367 1373 1378 1384 1390 1395 1400 1405 1410 1414 1418 1422 1426 1430 1433 1437 1440 1444 1447 1451 1454 1458 1461 1463 1466 1468 1470
1344 1342 1341 1341 1341 1342 1342 1343 1345 1346 1348 1351 1354 1357 1360 1365 1370 1376 1382 1388 1393 1398 1403 1407 1411 1415 1419 1423 1427 1430 1433 1437 1440 1444 1447 1450 1453 1456 1459 1461 1464 1466 1468
1346 1345 1343 1343 1343 1343 1344 1345 1347 1348 1350 1353 1356 1359 1364 1369 1374 1380 1386 1391 1396 1400 1405 1409 1412 1416 1420 1424 1427 1430 1433 1436 1440 1443 1446 1450 1453 1455 1458 1460 1462 1464 1465
1348 1346 1344 1344 1343 1344 1345 1346 1347 1349 1352 1355 1358 1362 1367 1372 1378 1383 1388 1393 1398 1402 1406 1410 1414 1417 1421 1424 1427 1430 1433 1436 1440 1443 1446 1448 1451 1454 1456 1458 1459 1461 1462